KD8BMB Weather Reports


Display with metric or nautical units.
time (UTC)temp
F
wind
direction
speed
MPH
gust
MPH
rain 1hr
in
rain 24hr
in
rain mn
in
humidity
%
barometer
mb
20260509153902 65 203 1.0 2.0 0.00 0.00 0.00 64 1001.3
20260509153359 64 278 4.0 5.0 0.00 0.00 0.00 63 1001.4
20260509152856 63 212 0.0 1.0 0.00 0.00 0.00 67 1001.8
20260509152352 62 235 0.0 0.0 0.00 0.00 0.00 70 1001.8
20260509151850 62 246 2.0 5.0 0.00 0.00 0.00 71 1001.7
20260509151345 61 129 3.0 3.0 0.00 0.00 0.00 71 1001.8
20260509150844 61 217 3.0 3.0 0.00 0.00 0.00 73 1001.9
20260509150341 61 221 0.0 0.0 0.00 0.00 0.00 74 1001.7
20260509145838 61 251 0.0 0.0 0.00 0.00 0.00 73 1002.0
20260509145333 61 91 3.0 3.0 0.00 0.00 0.00 76 1001.9
20260509144830 60 304 0.0 0.0 0.00 0.00 0.00 78 1002.0
20260509144327 59 132 0.0 0.0 0.00 0.00 0.00 79 1002.1
20260509143824 59 315 0.0 0.0 0.00 0.00 0.00 81 1002.0
20260509143322 59 261 1.0 1.0 0.00 0.00 0.00 80 1002.0
20260509142817 58 242 1.0 1.0 0.00 0.00 0.00 81 1001.9
20260509142314 57 263 0.0 0.0 0.00 0.00 0.00 83 1002.1
20260509141809 58 112 1.0 3.0 0.00 0.00 0.00 83 1002.3
20260509141307 58 276 5.0 8.0 0.00 0.00 0.00 82 1002.1
20260509140803 57 91 1.0 1.0 0.00 0.00 0.00 87 1002.0
20260509140300 57 127 0.0 0.0 0.00 0.00 0.00 88 1002.3
20260509135758 56 214 3.0 3.0 0.00 0.00 0.00 88 1002.5
20260509135255 55 77 2.0 2.0 0.00 0.00 0.00 89 1002.4
20260509134752 54 205 0.0 0.0 0.00 0.00 0.00 93 1002.3
20260509134250 54 158 0.0 1.0 0.00 0.00 0.00 94 1002.7
20260509133747 53 231 0.0 1.0 0.00 0.00 0.00 94 1002.7
20260509133243 54 279 0.0 1.0 0.00 0.00 0.00 94 1002.6
20260509132742 54 47 0.0 0.0 0.00 0.00 0.00 93 1003.5
20260509132240 54 93 2.0 2.0 0.00 0.00 0.00 91 1003.6
20260509131737 54 269 0.0 0.0 0.00 0.00 0.00 89 1004.3
20260509131233 55 322 0.0 0.0 0.00 0.00 0.00 88 1004.3
20260509130729 55 356 2.0 2.0 0.00 0.00 0.00 86 1004.3
20260509130225 56 297 5.0 7.0 0.00 0.00 0.00 84 1004.2
20260509125722 56 295 2.0 2.0 0.00 0.00 0.00 83 1003.5
20260509125219 56 223 0.0 0.0 0.00 0.00 0.00 83 1002.7
20260509124715 56 315 1.0 3.0 0.00 0.00 0.00 83 1002.7
20260509124212 57 194 0.0 0.0 0.00 0.00 0.00 82 1002.9
20260509123710 57 209 0.0 0.0 0.00 0.00 0.00 82 1002.9
20260509123207 57 225 1.0 2.0 0.00 0.00 0.00 82 1003.1
20260509122702 57 212 1.0 3.0 0.00 0.00 0.00 81 1002.8
20260509122200 56 235 2.0 6.0 0.00 0.00 0.00 83 1003.1
20260509121656 56 189 1.0 1.0 0.00 0.00 0.00 84 1002.9
20260509121154 55 218 0.0 0.0 0.00 0.00 0.00 86 1003.0
20260509120652 54 150 1.0 2.0 0.00 0.00 0.00 88 1003.2
20260509120150 54 228 0.0 0.0 0.00 0.00 0.00 89 1003.4
20260509115647 53 205 0.0 0.0 0.00 0.00 0.00 91 1003.3
20260509115144 52 215 0.0 0.0 0.00 0.00 0.00 93 1003.4
20260509114642 52 182 0.0 0.0 0.00 0.00 0.00 93 1003.6
20260509114142 52 352 0.0 0.0 0.00 0.00 0.00 93 1003.7
20260509113639 52 65 0.0 0.0 0.00 0.00 0.00 94 1003.7
20260509113136 51 199 1.0 1.0 0.00 0.00 0.00 95 1003.7
20260509112632 50 214 0.0 0.0 0.00 0.00 0.00 96 1003.9
20260509112130 50 246 0.0 0.0 0.00 0.00 0.00 96 1003.7
20260509111627 50 73 1.0 2.0 0.00 0.00 0.00 96 1003.4
20260509111124 50 199 0.0 0.0 0.00 0.00 0.00 97 1003.6
20260509110621 50 234 0.0 0.0 0.00 0.00 0.00 97 1003.9
20260509110118 50 242 0.0 0.0 0.00 0.00 0.00 98 1003.6
20260509105616 49 261 0.0 0.0 0.00 0.00 0.00 98 1003.9
20260509105113 49 286 0.0 1.0 0.00 0.00 0.00 98 1003.9
20260509104610 49 288 0.0 0.0 0.00 0.00 0.00 99 1003.7
20260509104108 49 314 0.0 0.0 0.00 0.00 0.00 99 1003.6
20260509103605 48 100 0.0 0.0 0.00 0.00 0.00 99 1004.0
20260509103103 48 2 0.0 0.0 0.00 0.00 0.00 99 1003.7
20260509102600 48 273 0.0 0.0 0.00 0.00 0.00 98 1003.9
20260509102056 48 275 0.0 0.0 0.00 0.00 0.00 98 1004.1
20260509101553 47 246 0.0 0.0 0.00 0.00 0.00 98 1004.2
20260509101050 47 257 0.0 0.0 0.00 0.00 0.00 98 1003.7
20260509100547 47 230 0.0 0.0 0.00 0.00 0.00 97 1004.1
20260509100044 47 273 0.0 0.0 0.00 0.00 0.00 97 1004.3
20260509095540 46 298 0.0 0.0 0.00 0.00 0.00 96 1004.2
20260509095038 46 206 0.0 0.0 0.00 0.00 0.00 96 1004.3
20260509094534 46 256 0.0 0.0 0.00 0.00 0.00 95 1004.4
20260509094032 46 283 0.0 0.0 0.00 0.00 0.00 94 1004.5
20260509093530 46 255 0.0 0.0 0.00 0.00 0.00 93 1004.7
20260509093027 46 289 0.0 0.0 0.00 0.00 0.00 92 1004.6
20260509092525 46 277 0.0 0.0 0.00 0.00 0.00 92 1004.8
20260509092023 46 199 0.0 0.0 0.00 0.00 0.00 92 1005.0
20260509091520 45 301 0.0 0.0 0.00 0.00 0.00 91 1004.6
20260509091017 45 287 0.0 0.0 0.00 0.00 0.00 90 1004.7
20260509090514 44 345 0.0 0.0 0.00 0.00 0.00 89 1004.7
20260509090012 44 293 0.0 0.0 0.00 0.00 0.00 88 1004.7
20260509085509 44 267 0.0 0.0 0.00 0.00 0.00 87 1004.8
20260509085005 45 275 0.0 0.0 0.00 0.00 0.00 86 1004.7
20260509084502 45 271 0.0 0.0 0.00 0.00 0.00 85 1004.8
20260509083959 45 277 0.0 0.0 0.00 0.00 0.00 83 1004.7
20260509083456 45 294 0.0 0.0 0.00 0.00 0.00 82 1004.7
20260509082952 46 267 0.0 0.0 0.00 0.00 0.00 81 1005.0
20260509082450 45 264 0.0 0.0 0.00 0.00 0.00 80 1004.8
20260509081947 45 272 0.0 0.0 0.00 0.00 0.00 79 1004.9
20260509081444 45 198 0.0 0.0 0.00 0.00 0.00 77 1004.9
20260509080941 46 273 0.0 0.0 0.00 0.00 0.00 75 1004.8
20260509080440 46 296 0.0 0.0 0.00 0.00 0.00 73 1004.6
20260509075937 46 282 0.0 0.0 0.00 0.00 0.00 71 1004.7
20260509075434 46 255 0.0 0.0 0.00 0.00 0.00 70 1004.6
20260509074932 46 294 0.0 0.0 0.00 0.00 0.00 67 1004.5
20260509074429 46 262 0.0 0.0 0.00 0.00 0.00 64 1004.7
20260509073925 46 252 0.0 0.0 0.00 0.00 0.00 63 1004.8
20260509073422 46 255 0.0 0.0 0.00 0.00 0.00 61 1004.8
20260509072918 46 257 0.0 0.0 0.00 0.00 0.00 60 1005.0
20260509072415 46 250 0.0 0.0 0.00 0.00 0.00 58 1004.8
20260509071911 46 256 0.0 0.0 0.00 0.00 0.00 58 1005.0
20260509071409 45 304 0.0 0.0 0.00 0.00 0.00 57 1005.0
20260509070906 45 294 0.0 0.0 0.00 0.00 0.00 58 1004.9
20260509070403 45 318 0.0 0.0 0.00 0.00 0.00 58 1005.1
20260509065858 45 288 0.0 0.0 0.00 0.00 0.00 58 1005.2
20260509065355 45 230 0.0 0.0 0.00 0.00 0.00 59 1005.2
20260509064851 44 326 0.0 0.0 0.00 0.00 0.00 60 1005.2
20260509064349 44 279 0.0 0.0 0.00 0.00 0.00 60 1005.4
20260509063846 43 238 0.0 0.0 0.00 0.00 0.00 62 1005.5
20260509063342 43 328 0.0 0.0 0.00 0.00 0.00 65 1005.4
20260509062839 43 321 0.0 0.0 0.00 0.00 0.00 69 1005.5
20260509062336 43 312 0.0 0.0 0.00 0.00 0.00 71 1005.5
20260509061834 43 292 0.0 0.0 0.00 0.00 0.00 70 1005.4
20260509061332 42 299 0.0 0.0 0.00 0.00 0.00 69 1005.5
20260509060828 42 299 0.0 0.0 0.00 0.00 0.00 70 1005.4
20260509060326 42 299 0.0 0.0 0.00 0.00 0.00 71 1005.6
20260509055821 43 301 0.0 0.0 0.00 0.00 0.00 71 1005.5
20260509055316 44 301 0.0 0.0 0.00 0.00 0.00 73 1005.6
20260509054814 44 314 0.0 0.0 0.00 0.00 0.00 72 1005.5
20260509054310 44 297 0.0 0.0 0.00 0.00 0.00 70 1005.7
20260509053809 44 322 0.0 0.0 0.00 0.00 0.00 69 1005.4
20260509053305 45 350 0.0 0.0 0.00 0.00 0.00 70 1005.5
20260509052803 45 318 0.0 0.0 0.00 0.00 0.00 69 1005.8
20260509052301 46 303 0.0 0.0 0.00 0.00 0.00 68 1005.6
20260509051758 45 284 0.0 0.0 0.00 0.00 0.00 67 1005.8
20260509051256 46 331 0.0 0.0 0.00 0.00 0.00 67 1005.7
20260509050753 46 279 0.0 0.0 0.00 0.00 0.00 67 1005.7
20260509050249 46 15 0.0 0.0 0.00 0.00 0.00 66 1005.7
20260509045747 46 260 0.0 0.0 0.00 0.00 0.00 66 1005.9
20260509045243 47 260 0.0 0.0 0.00 0.00 0.00 63 1006.0
20260509044741 47 268 0.0 0.0 0.00 0.00 0.00 62 1005.9
20260509044238 47 277 0.0 0.0 0.00 0.00 0.00 63 1005.8
20260509043734 47 287 0.0 0.0 0.00 0.00 0.00 62 1005.9
20260509043230 47 265 0.0 0.0 0.00 0.00 0.00 65 1006.0
20260509042726 48 265 0.0 0.0 0.00 0.00 0.00 63 1006.0
20260509042223 48 265 0.0 0.0 0.00 0.00 0.00 61 1006.1
20260509041720 48 265 0.0 0.0 0.00 0.00 0.00 61 1005.8
20260509041217 49 263 0.0 0.0 0.00 0.00 0.00 62 1005.9
20260509040716 49 243 0.0 0.0 0.00 0.00 0.00 60 1006.2
20260509040212 49 244 0.0 0.0 0.00 0.00 0.00 61 1006.2
20260509035708 49 257 0.0 0.0 0.00 0.00 0.00 60 1006.3
20260509035205 49 258 0.0 0.0 0.00 0.00 0.00 61 1006.3
20260509034703 49 280 0.0 0.0 0.00 0.00 0.00 62 1006.1
20260509034200 49 289 0.0 0.0 0.00 0.00 0.00 59 1006.3
20260509033657 50 323 0.0 0.0 0.00 0.00 0.00 61 1006.4
20260509033154 50 316 0.0 0.0 0.00 0.00 0.00 61 1006.3
20260509032651 50 281 0.0 0.0 0.00 0.00 0.00 62 1006.3
20260509032148 49 292 0.0 0.0 0.00 0.00 0.00 63 1006.5
20260509031646 49 292 0.0 0.0 0.00 0.00 0.00 62 1006.8
20260509031143 49 292 0.0 0.0 0.00 0.00 0.00 62 1006.7
20260509030641 49 293 0.0 0.0 0.00 0.00 0.00 60 1006.5
20260509030138 49 293 0.0 0.0 0.00 0.00 0.00 60 1006.7
20260509025634 49 293 0.0 0.0 0.00 0.00 0.00 59 1006.7
20260509025130 49 292 0.0 0.0 0.00 0.00 0.00 61 1006.8
20260509024625 48 292 0.0 0.0 0.00 0.00 0.00 63 1006.8
20260509024121 48 315 0.0 0.0 0.00 0.00 0.00 62 1006.8
20260509023620 48 322 0.0 0.0 0.00 0.00 0.00 61 1006.7
20260509023116 48 322 0.0 0.0 0.00 0.00 0.00 60 1006.9
20260509022613 48 322 0.0 0.0 0.00 0.00 0.00 60 1006.7
20260509022111 49 322 0.0 0.0 0.00 0.00 0.00 59 1006.9
20260509021607 49 267 0.0 0.0 0.00 0.00 0.00 59 1007.0
20260509021104 49 268 0.0 0.0 0.00 0.00 0.00 58 1006.7
20260509020603 49 268 0.0 0.0 0.00 0.00 0.00 58 1006.9
20260509020059 49 268 0.0 0.0 0.00 0.00 0.00 58 1006.8
20260509015558 50 268 0.0 0.0 0.00 0.00 0.00 57 1006.9
20260509015055 50 268 0.0 0.0 0.00 0.00 0.00 56 1006.8
20260509014552 50 268 0.0 0.0 0.00 0.00 0.00 55 1006.8
20260509014048 51 268 0.0 0.0 0.00 0.00 0.00 54 1006.9
20260509013545 51 267 0.0 0.0 0.00 0.00 0.00 52 1006.6
20260509013040 52 268 0.0 0.0 0.00 0.00 0.00 51 1006.7
20260509012538 52 290 0.0 0.0 0.00 0.00 0.00 50 1006.6
20260509012034 53 292 0.0 0.0 0.00 0.00 0.00 50 1006.2
20260509011532 53 292 0.0 0.0 0.00 0.00 0.00 49 1006.3
20260509011029 53 292 0.0 0.0 0.00 0.00 0.00 47 1006.4
20260509010527 55 292 0.0 0.0 0.00 0.00 0.00 46 1006.3
20260509010024 55 289 0.0 0.0 0.00 0.00 0.00 44 1006.2
20260509005521 56 293 0.0 0.0 0.00 0.00 0.00 42 1006.2
20260509005021 56 292 0.0 0.0 0.00 0.00 0.00 40 1006.3
20260509004519 57 292 0.0 0.0 0.00 0.00 0.00 39 1006.1
20260509004015 57 292 0.0 0.0 0.00 0.00 0.00 38 1006.0
20260509003514 58 292 0.0 0.0 0.00 0.00 0.00 40 1006.1
20260509003010 58 316 0.0 0.0 0.00 0.00 0.00 37 1006.0
20260509002508 59 273 0.0 0.0 0.00 0.00 0.00 36 1006.2
20260509002005 59 276 0.0 0.0 0.00 0.00 0.00 36 1006.1
20260509001502 59 294 0.0 0.0 0.00 0.00 0.00 34 1006.0
20260509000959 60 310 0.0 0.0 0.00 0.00 0.00 33 1005.9
20260509000457 60 292 0.0 0.0 0.00 0.00 0.00 35 1006.0
20260508235952 60 266 0.0 0.0 0.00 0.00 0.00 33 1006.0
20260508235450 61 298 0.0 0.0 0.00 0.00 0.00 33 1006.0
20260508234947 61 282 0.0 0.0 0.00 0.00 0.00 31 1005.8
20260508234444 62 271 3.0 5.0 0.00 0.00 0.00 31 1005.8
20260508233941 62 259 2.0 2.0 0.00 0.00 0.00 31 1005.9
20260508233441 62 250 0.0 1.0 0.00 0.00 0.00 30 1006.0
20260508232937 63 281 1.0 1.0 0.00 0.00 0.00 31 1005.6
20260508232434 64 304 0.0 0.0 0.00 0.00 0.00 29 1005.8
20260508231931 64 303 1.0 2.0 0.00 0.00 0.00 30 1005.8
20260508231428 64 309 0.0 0.0 0.00 0.00 0.00 30 1005.8
20260508230925 63 279 4.0 5.0 0.00 0.00 0.00 29 1005.8
20260508230422 64 225 3.0 3.0 0.00 0.00 0.00 29 1006.0
20260508225919 64 282 3.0 6.0 0.00 0.00 0.00 30 1006.1
20260508225415 64 353 1.0 1.0 0.00 0.00 0.00 29 1006.2
20260508224913 64 262 4.0 6.0 0.00 0.00 0.00 28 1006.2
20260508224411 65 238 3.0 5.0 0.00 0.00 0.00 30 1006.0
20260508223908 65 266 0.0 0.0 0.00 0.00 0.00 29 1006.2
20260508223406 66 325 0.0 0.0 0.00 0.00 0.00 29 1006.2
20260508222903 65 268 1.0 2.0 0.00 0.00 0.00 30 1006.1
20260508222400 64 225 1.0 1.0 0.00 0.00 0.00 31 1006.3
20260508221856 64 262 0.0 0.0 0.00 0.00 0.00 31 1006.2
20260508221352 64 242 0.0 0.0 0.00 0.00 0.00 30 1006.2
20260508220849 64 214 3.0 5.0 0.00 0.00 0.00 31 1006.6
20260508220345 64 215 4.0 6.0 0.00 0.00 0.00 30 1006.4
20260508215841 64 224 5.0 7.0 0.00 0.00 0.00 30 1006.6
20260508215338 64 246 2.0 2.0 0.00 0.00 0.00 31 1006.5
20260508214835 65 291 2.0 3.0 0.00 0.00 0.00 33 1006.6
20260508214332 65 311 2.0 3.0 0.00 0.00 0.00 30 1006.5
20260508213828 64 290 0.0 1.0 0.00 0.00 0.00 30 1006.6
20260508213325 64 66 1.0 1.0 0.00 0.00 0.00 32 1006.6
20260508212822 64 220 0.0 1.0 0.00 0.00 0.00 30 1006.8
20260508212318 64 232 3.0 5.0 0.00 0.00 0.00 30 1006.7
20260508211814 64 254 2.0 3.0 0.00 0.00 0.00 30 1006.8
20260508211309 64 279 7.0 10.0 0.00 0.00 0.00 30 1006.8
20260508210808 64 279 5.0 11.0 0.00 0.00 0.00 31 1006.8
20260508210304 64 273 3.0 5.0 0.00 0.00 0.00 30 1006.6
20260508205801 64 293 1.0 2.0 0.00 0.00 0.00 31 1006.9
20260508205257 64 273 2.0 5.0 0.00 0.00 0.00 30 1006.9
20260508204753 64 174 3.0 6.0 0.00 0.00 0.00 29 1007.0
20260508204250 64 251 7.0 13.0 0.00 0.00 0.00 29 1007.1
20260508203746 63 297 3.0 3.0 0.00 0.00 0.00 30 1006.9
20260508203243 65 294 4.0 5.0 0.00 0.00 0.00 32 1007.3
20260508202738 63 300 2.0 2.0 0.00 0.00 0.00 33 1007.4
20260508202236 63 271 4.0 8.0 0.00 0.00 0.00 32 1007.5
20260508201733 63 210 3.0 3.0 0.00 0.00 0.00 32 1007.7
20260508201229 63 216 2.0 5.0 0.00 0.00 0.00 34 1007.5
20260508200726 64 264 0.0 0.0 0.00 0.00 0.00 32 1007.7
20260508200222 62 213 1.0 1.0 0.00 0.00 0.00 33 1007.9
20260508195719 62 322 4.0 6.0 0.00 0.00 0.00 33 1007.9
20260508195215 63 247 2.0 3.0 0.00 0.00 0.00 32 1008.0
20260508194712 64 313 7.0 9.0 0.00 0.00 0.00 31 1008.0
20260508194209 62 204 0.0 0.0 0.00 0.00 0.00 33 1008.1
20260508193706 62 336 1.0 3.0 0.00 0.00 0.00 33 1008.2
20260508193203 63 203 3.0 5.0 0.00 0.00 0.00 33 1008.4
20260508192659 61 222 1.0 1.0 0.00 0.00 0.00 34 1008.4
20260508192156 62 269 4.0 5.0 0.00 0.00 0.00 34 1008.4
20260508191654 62 248 3.0 7.0 0.00 0.00 0.00 33 1008.4
20260508191150 63 308 3.0 5.0 0.00 0.00 0.00 33 1008.2
20260508190648 62 284 4.0 6.0 0.00 0.00 0.00 32 1008.8
20260508190144 63 280 1.0 1.0 0.00 0.00 0.00 34 1008.7
20260508185641 62 286 1.0 2.0 0.00 0.00 0.00 33 1008.7
20260508185138 63 221 4.0 7.0 0.00 0.00 0.00 34 1008.8
20260508184635 61 281 6.0 7.0 0.00 0.00 0.00 32 1009.0
20260508184132 62 121 0.0 0.0 0.00 0.00 0.00 35 1008.9
20260508183629 62 284 0.0 1.0 0.00 0.00 0.00 33 1008.9
20260508183125 61 327 0.0 0.0 0.00 0.00 0.00 33 1009.2
20260508182621 61 232 0.0 2.0 0.00 0.00 0.00 35 1009.3
20260508182118 60 227 2.0 3.0 0.00 0.00 0.00 36 1009.2
20260508181613 61 279 6.0 9.0 0.00 0.00 0.00 31 1009.2
20260508181111 61 224 5.0 8.0 0.00 0.00 0.00 32 1009.2
20260508180608 63 292 0.0 1.0 0.00 0.00 0.00 31 1009.2
20260508180104 62 172 0.0 0.0 0.00 0.00 0.00 33 1009.5
20260508175601 61 266 0.0 0.0 0.00 0.00 0.00 33 1009.4
20260508175058 61 273 5.0 9.0 0.00 0.00 0.00 32 1009.7
20260508174555 60 247 2.0 3.0 0.00 0.00 0.00 33 1009.8
20260508174052 62 288 5.0 6.0 0.00 0.00 0.00 32 1009.7
20260508173549 61 262 0.0 0.0 0.00 0.00 0.00 31 1009.8
20260508173045 60 283 3.0 3.0 0.00 0.00 0.00 32 1010.0
20260508172543 61 218 5.0 6.0 0.00 0.00 0.00 30 1010.3
20260508172039 60 201 0.0 1.0 0.00 0.00 0.00 33 1010.1
20260508171536 59 214 0.0 1.0 0.00 0.00 0.00 33 1010.3
20260508171032 61 217 6.0 9.0 0.00 0.00 0.00 33 1010.1
20260508170529 60 36 0.0 1.0 0.00 0.00 0.00 32 1010.3
20260508170027 59 275 1.0 2.0 0.00 0.00 0.00 34 1010.4
20260508165524 60 320 0.0 1.0 0.00 0.00 0.00 32 1010.4
20260508165020 58 271 1.0 2.0 0.00 0.00 0.00 32 1010.5
20260508164517 58 219 4.0 7.0 0.00 0.00 0.00 32 1010.6
20260508164014 58 289 3.0 5.0 0.00 0.00 0.00 35 1010.6
20260508163511 58 333 2.0 5.0 0.00 0.00 0.00 34 1010.7
20260508163008 59 209 0.0 0.0 0.00 0.00 0.00 36 1010.9
20260508162505 58 49 0.0 0.0 0.00 0.00 0.00 34 1010.8
20260508162002 58 253 1.0 2.0 0.00 0.00 0.00 33 1010.9
20260508161458 57 248 1.0 2.0 0.00 0.00 0.00 36 1010.9
20260508160956 58 199 2.0 3.0 0.00 0.00 0.00 38 1011.0
20260508160454 58 288 8.0 8.0 0.00 0.00 0.00 35 1011.0
20260508155950 59 296 5.0 6.0 0.00 0.00 0.00 37 1010.8
20260508155448 57 289 0.0 0.0 0.00 0.00 0.00 40 1010.9
20260508154944 58 276 4.0 5.0 0.00 0.00 0.00 37 1011.0
20260508154442 58 287 1.0 2.0 0.00 0.00 0.00 40 1011.2